Location: Laas
(43.4693°N, 0.3073°E)
Time: 15:29:18
(UTC+00:00)

COSMOS 2487 - Pass Details

Date: 25 October 2020
Orbit: 438 x 440 km, 74.7° (Epoch: 23 November)

Event Time Altitude Azimuth Distance (km) Brightness Sun altitude
Rises 17:38:55 0° 337° (NNW) 2,449 6.3 -7.8°
Reaches altitude 10° 17:41:00 10° 335° (NNW) 1,573 5.4 -8.2°
Maximum altitude 17:44:26 64° 253° (WSW) 498 2.9 -8.8°
Drops below altitude 10° 17:47:49 10° 172° (S) 1,558 5.1 -9.4°
Sets 17:49:53 0° 169° (S) 2,422 6.1 -9.8°
